TimeEDT,TemperatureF,Dew PointF,Humidity,Sea Level PressureIn,VisibilityMPH,Wind Direction,Wind SpeedMPH,Gust SpeedMPH,PrecipitationIn,Events,Conditions,WindDirDegrees,DateUTC
12:15 AM,57.2,53.6,88,30.05,10.0,SSW,5.8,-,N/A,,Clear,210,2012-11-03 04:15:00
12:35 AM,57.2,53.6,88,30.04,10.0,SW,5.8,-,N/A,,Clear,230,2012-11-03 04:35:00
12:55 AM,57.2,53.6,88,30.04,10.0,SW,3.5,-,N/A,,Clear,220,2012-11-03 04:55:00
1:15 AM,57.2,53.6,88,30.05,10.0,Calm,Calm,-,N/A,,Clear,0,2012-11-03 05:15:00
1:35 AM,59.0,55.4,88,30.05,10.0,SW,4.6,-,N/A,,Clear,230,2012-11-03 05:35:00
1:55 AM,57.2,55.4,94,30.04,10.0,SW,3.5,-,N/A,,Clear,230,2012-11-03 05:55:00
2:15 AM,57.2,55.4,94,30.05,10.0,Calm,Calm,-,N/A,,Clear,0,2012-11-03 06:15:00
2:35 AM,57.2,55.4,94,30.05,10.0,Calm,Calm,-,N/A,,Clear,0,2012-11-03 06:35:00
2:55 AM,57.2,55.4,94,30.05,10.0,Calm,Calm,-,N/A,,Clear,0,2012-11-03 06:55:00
3:15 AM,55.4,55.4,100,30.05,10.0,Calm,Calm,-,N/A,,Clear,0,2012-11-03 07:15:00
3:35 AM,53.6,53.6,100,30.05,10.0,SW,3.5,-,N/A,,Clear,230,2012-11-03 07:35:00
3:55 AM,55.4,55.4,100,30.05,10.0,SW,3.5,-,N/A,,Clear,220,2012-11-03 07:55:00
4:15 AM,55.4,55.4,100,30.05,10.0,SW,3.5,-,N/A,,Clear,220,2012-11-03 08:15:00
4:35 AM,55.4,55.4,100,30.05,9.0,Calm,Calm,-,N/A,,Clear,0,2012-11-03 08:35:00
4:55 AM,53.6,53.6,100,30.05,5.0,Calm,Calm,-,N/A,,Clear,0,2012-11-03 08:55:00
5:15 AM,51.8,51.8,100,30.06,5.0,Calm,Calm,-,N/A,,Clear,0,2012-11-03 09:15:00
5:35 AM,51.8,51.8,100,30.06,1.2,Calm,Calm,-,N/A,,Clear,0,2012-11-03 09:35:00
5:55 AM,51.8,51.8,100,30.07,0.8,Calm,Calm,-,N/A,,Mist,0,2012-11-03 09:55:00
6:15 AM,53.6,53.6,100,30.07,5.0,Calm,Calm,-,N/A,,Clear,0,2012-11-03 10:15:00
6:50 AM,55.4,55.4,100,30.08,0.2,Calm,Calm,-,N/A,Fog,Fog,0,2012-11-03 10:50:00
7:50 AM,57.2,57.2,100,30.10,0.2,Calm,Calm,-,N/A,Fog,Fog,0,2012-11-03 11:50:00
9:50 AM,60.8,60.8,100,30.13,1.0,NNW,6.9,-,N/A,,Overcast,330,2012-11-03 13:50:00
10:50 AM,66.2,62.6,88,30.14,10.0,Calm,Calm,-,N/A,,Partly Cloudy,0,2012-11-03 14:50:00
11:50 AM,73.4,60.8,65,30.13,10.0,Calm,Calm,-,N/A,,Clear,0,2012-11-03 15:50:00
12:50 PM,77.0,57.2,50,30.11,10.0,Calm,Calm,-,N/A,,Clear,0,2012-11-03 16:50:00
1:50 PM,80.6,57.2,45,30.08,10.0,NW,6.9,-,N/A,,Clear,320,2012-11-03 17:50:00
2:50 PM,80.6,57.2,45,30.06,10.0,North,5.8,-,N/A,,Clear,360,2012-11-03 18:50:00
3:50 PM,80.6,55.4,42,30.05,10.0,Variable,5.8,-,N/A,,Clear,0,2012-11-03 19:50:00
4:50 PM,82.4,55.4,39,30.05,10.0,Variable,5.8,-,N/A,,Clear,0,2012-11-03 20:50:00
6:50 PM,66.2,60.8,83,30.05,10.0,Calm,Calm,-,N/A,,Clear,0,2012-11-03 22:50:00
7:50 PM,59.0,59.0,100,30.07,10.0,Calm,Calm,-,N/A,,Clear,0,2012-11-03 23:50:00
8:55 PM,57.2,57.2,100,30.08,10.0,Calm,Calm,-,N/A,,Clear,0,2012-11-04 00:55:00
9:15 PM,57.2,57.2,100,30.08,10.0,Calm,Calm,-,N/A,,Clear,0,2012-11-04 01:15:00
9:35 PM,57.2,57.2,100,30.08,10.0,Calm,Calm,-,N/A,,Clear,0,2012-11-04 01:35:00
9:55 PM,57.2,57.2,100,30.09,10.0,Calm,Calm,-,N/A,,Clear,0,2012-11-04 01:55:00
10:15 PM,55.4,55.4,100,30.08,8.0,Calm,Calm,-,N/A,,Clear,0,2012-11-04 02:15:00
10:35 PM,55.4,55.4,100,30.09,9.0,Calm,Calm,-,N/A,,Clear,0,2012-11-04 02:35:00
10:55 PM,53.6,53.6,100,30.09,8.0,Calm,Calm,-,N/A,,Clear,0,2012-11-04 02:55:00
11:15 PM,55.4,55.4,100,30.09,8.0,Calm,Calm,-,N/A,,Clear,0,2012-11-04 03:15:00
11:35 PM,55.4,55.4,100,30.09,10.0,Calm,Calm,-,N/A,,Clear,0,2012-11-04 03:35:00
11:55 PM,55.4,55.4,100,30.09,8.0,Calm,Calm,-,N/A,,Clear,0,2012-11-04 03:55:00